GLOBALSTAR M033 [-]

Last updated on July 6, 2021, 3:36 p.m. UTC

1 25909U 99049C   21187.13184645 -.00000131  00000-0 -37489-3 0  9998
2 25909  51.9923  86.4295 0011134 205.8524 154.1768 12.20220447992417
UTC
Height (km)
Latitude
Longitude
Inclination
Orbital Period
UTC large
Height (km)
Speed (km/s)
/
Latitude / Longitude
Inclination (degrees)
Orbital Period (minutes)
Azimuth
Elevation
Range (km)
Doppler Factor
iOS Compass Heading
iOS Angle